This demonstration page uses our WeatherBlox Daily Observations layout. Learn more.

Left ArrowRight Arrow

39.12711, -84.51439

Hourly Observations for May 15, 2016

Temp ( °F °C ) Dew Point ( °F °C ) Humidity (%) Winds ( mph kmh ) Pressure ( in mb ) Visibility ( mi km ) Precip ( " mm )
12:53 am 00:53 Cloudy 46 7.8 34 1.1 63 63 W 6 9 30.09 1019 10 16 0.00 0.00
1:53 am 01:53 Cloudy 46 7.8 36 2.2 68 68 WSW 7 11 30.09 1019 10 16 0.00 0.00
2:53 am 02:53 Cloudy 45 7.2 37 2.8 74 74 SW 8 13 30.08 1019 10 16 0.00 0.00
3:53 am 03:53 Cloudy 44 6.7 39 3.9 83 83 SSW 7 11 30.07 1018 10 16 0.00 0.00
4:53 am 04:53 Mostly Cloudy 44 6.7 38 3.3 79 79 SW 8 13 30.07 1018 10 16 0.00 0.00
5:53 am 05:53 Mostly Cloudy 44 6.7 38 3.3 79 79 SW 8 13 30.08 1019 10 16 0.00 0.00
6:53 am 06:53 Mostly Sunny 44 6.7 38 3.3 79 79 WSW 10 17 30.09 1019 10 16 0.00 0.00
7:53 am 07:53 Mostly Sunny 46 7.8 38 3.3 73 73 W 12 19 30.11 1020 10 16 0.00 0.00
8:53 am 08:53 Sunny 49 9.4 38 3.3 66 66 W 9 15 30.11 1020 10 16 0.00 0.00
9:53 am 09:53 Mostly Cloudy 51 10.6 36 2.2 56 56 VRB 7 11 30.13 1020 10 16 0.00 0.00
10:53 am 10:53 Mostly Cloudy 53 11.7 34 1.1 48 48 NW 15 24 30.13 1020 10 16 0.00 0.00
11:53 am 11:53 Mostly Cloudy 55 12.8 35 1.7 47 47 WNW 13 20 30.13 1020 10 16 0.00 0.00
12:53 pm 12:53 Mostly Cloudy 54 12.2 33 0.6 45 45 W 13 20 30.12 1020 10 16 0.00 0.00
1:53 pm 13:53 Mostly Cloudy 55 12.8 32 0 42 42 WNW 14 22 30.12 1020 10 16 0.00 0.00
2:53 pm 14:53 Mostly Cloudy 56 13.3 33 0.6 42 42 WNW 16 26 30.11 1020 10 16 0.00 0.00
3:53 pm 15:53 Mostly Cloudy 58 14.4 33 0.6 39 39 W 14 22 30.09 1019 10 16 0.00 0.00
4:53 pm 16:53 Mostly Cloudy 60 15.6 34 1.1 38 38 W 17 28 30.09 1019 10 16 0.00 0.00
5:53 pm 17:53 Partly Cloudy 59 15 33 0.6 38 38 WNW 14 22 30.10 1019 10 16 0.00 0.00
6:53 pm 18:53 Mostly Sunny 57 13.9 32 0 39 39 WNW 13 20 30.11 1020 10 16 0.00 0.00
7:53 pm 19:53 Mostly Sunny 56 13.3 29 -1.7 36 36 NW 9 15 30.12 1020 10 16 0.00 0.00
8:53 pm 20:53 Clear 52 11.1 30 -1.1 43 43 NW 6 9 30.15 1021 10 16 0.00 0.00
9:53 pm 21:53 Clear 50 10 31 -0.6 48 48 N 12 19 30.20 1023 10 16 0.00 0.00
10:53 pm 22:53 Clear 46 7.8 27 -2.8 47 47 N 13 20 30.24 1024 10 16 0.00 0.00
11:53 pm 23:53 Clear 43 6.1 27 -2.8 53 53 NNE 6 9 30.25 1024 10 16 0.00 0.00

Powered by AerisWeather